Volk, WI

7:52 AM CDT on July 24, 2017 (GMT -0500)
Volk

Weather History for KVOK - November, 2011

Change the Weather History Date:

Friday, November 25, 2011

  Actual Average Record
Temperature  
Mean Temperature 48 °F -  
Max Temperature 52 °F 36 °F 57 °F (1998)
Min Temperature 45 °F 24 °F 5 °F (1996)
Degree Days  
Heating Degree Days 16    
Moisture  
Dew Point 45 °F    
Average Humidity 87    
Maximum Humidity 100    
Minimum Humidity 67    
Precipitation  
Precipitation 0.00 in - - ()
Sea Level Pressure  
Sea Level Pressure 29.79 in    
Wind  
Wind Speed 8 mph (South)    
Max Wind Speed 12 mph    
Max Gust Speed 26 mph    
Visibility 10 miles    
Events      
Averages and records for this station are not official NWS values.
T = Trace of Precipitation, MM = Missing Value Source: NWS Daily Summary

Daily Weather History Graph

Daily Weather History Graph

Search for Another Location

Airport or City:

Trip Planner

Search our weather history database for the weather conditions in past years. The results will help you decide how hot, cold, wet, or windy it might be!

Date:

Astronomy

Nov. 25, 2011 Rise Set
Actual Time 7:08 AM CST 4:27 PM CST
Civil Twilight 6:36 AM CST 4:59 PM CST
Nautical Twilight 6:00 AM CST 5:34 PM CST
Astronomical Twilight 5:26 AM CST 6:09 PM CST
Moon 7:38 AM CST (11/25) 4:53 PM CST (11/25)
Length of Visible Light 10h 23m
Length of Day
9h 19m
New Moon, 0% of the Moon is Illuminated
Nov 25
New Moon
Dec 2
First Quarter
Dec 10
Full
Dec 17
Last Quarter
Dec 24
New

Hourly Weather History & Observations

Time (CST) Temp. Windchill Dew Point Humidity Pressure Visibility Wind Dir Wind Speed Gust Speed Precip Events Conditions
12:55 AM 52.2 °F - 41.5 °F 67% 29.82 in 10.0 mi SSW 11.5 mph 26.5 mph N/A   Clear
1:55 AM 51.3 °F - 41.0 °F 68% 29.81 in 10.0 mi South 6.9 mph - N/A   Clear
2:55 AM 50.2 °F - 40.8 °F 70% 29.81 in 10.0 mi South 8.1 mph - N/A   Clear
3:55 AM 49.1 °F - 41.0 °F 74% 29.79 in 10.0 mi South 5.8 mph - N/A   Clear
4:55 AM 48.0 °F - 41.4 °F 78% 29.79 in 10.0 mi South 10.4 mph 19.6 mph N/A   Clear
5:55 AM 46.8 °F - 41.5 °F 82% 29.79 in 10.0 mi South 8.1 mph - N/A   Clear
6:55 AM 46.0 °F 42.5 °F 41.7 °F 85% 29.79 in 10.0 mi South 6.9 mph - N/A   Clear
7:55 AM 45.7 °F 44.4 °F 42.4 °F 88% 29.80 in 10.0 mi SSE 3.5 mph - N/A   Clear
8:55 AM 47.8 °F - 43.2 °F 84% 29.80 in 10.0 mi South 5.8 mph - N/A   Scattered Clouds
9:01 AM 48.2 °F - 42.8 °F 82% 29.80 in 10.0 mi Variable 4.6 mph - N/A   Mostly Cloudy
9:55 AM 50.0 °F - 43.9 °F 79% 29.81 in 10.0 mi SW 10.4 mph - N/A   Overcast
10:55 AM 50.9 °F - 44.4 °F 78% 29.80 in 10.0 mi SSW 11.5 mph - N/A   Overcast
11:55 AM 50.7 °F - 44.6 °F 80% 29.77 in 10.0 mi SSW 8.1 mph - N/A   Overcast
12:55 PM 50.9 °F - 45.0 °F 80% 29.77 in 10.0 mi South 11.5 mph - N/A   Overcast
1:55 PM 50.7 °F - 45.5 °F 82% 29.76 in 10.0 mi SSW 6.9 mph - N/A   Overcast
2:55 PM 50.9 °F - 45.7 °F 82% 29.77 in 10.0 mi South 8.1 mph - N/A   Overcast
3:55 PM 50.7 °F - 46.0 °F 84% 29.78 in 10.0 mi Variable 6.9 mph - N/A   Overcast
4:55 PM 48.9 °F - 46.0 °F 90% 29.77 in 10.0 mi South 11.5 mph - N/A   Overcast
5:55 PM 48.4 °F - 46.2 °F 92% 29.80 in 10.0 mi SSW 11.5 mph - N/A   Overcast
6:55 PM 48.0 °F - 46.2 °F 93% 29.80 in 10.0 mi Variable 4.6 mph - N/A   Overcast
7:17 PM 48.2 °F - 46.4 °F 93% 29.80 in 10.0 mi Variable 5.8 mph - N/A   Overcast
7:55 PM 48.0 °F - 47.3 °F 97% 29.81 in 10.0 mi South 8.1 mph - N/A   Overcast
8:55 PM 47.8 °F - 47.5 °F 99% 29.80 in 10.0 mi SSE 4.6 mph - N/A   Overcast
9:55 PM 47.5 °F - 47.3 °F 99% 29.80 in 10.0 mi ESE 3.5 mph - N/A   Overcast
10:35 PM 48.2 °F - 48.2 °F 100% 29.79 in 10.0 mi SSE 6.9 mph - N/A   Scattered Clouds
10:55 PM 48.0 °F - 48.0 °F 100% 29.79 in 10.0 mi SSE 5.8 mph - N/A   Partly Cloudy
11:43 PM 48.2 °F - 48.2 °F 100% 29.78 in 10.0 mi SE 6.9 mph - N/A   Mostly Cloudy
11:45 PM 48.2 °F - 48.2 °F 100% 29.78 in 10.0 mi ESE 6.9 mph - N/A   Scattered Clouds
11:47 PM 48.2 °F - 48.2 °F 100% 29.78 in 10.0 mi ESE 5.8 mph - N/A   Mostly Cloudy
11:55 PM 47.7 °F - 47.7 °F 100% 29.78 in 10.0 mi ESE 5.8 mph - N/A   Mostly Cloudy